Location: ????????
(55.8351°N, 38.7040°E)
Time: 02:37:22
(UTC+00:00)

Cosmos 923 Rocket - Pass Details

Date: 14 April 2024
Orbit: 755 x 784 km, 74.0° (Epoch: 28 May)

Event Time Altitude Azimuth Distance (km) Brightness Sun altitude
Exits shadow 01:02:23 - 196° (SSW) 2,541 6.2 -10.8°
Reaches altitude 10° 01:03:01 10° 196° (SSW) 2,296 6.0 -10.7°
Maximum altitude 01:08:12 70° 114° (ESE) 820 4.3 -10.1°
Drops below altitude 10° 01:13:28 10° 31° (NNE) 2,331 7.7 -9.5°
Sets 01:15:52 0° 30° (NNE) 3,267 8.5 -9.2°
